Погода в Новопетровке

Украина / Запорожская область     47°17′24″N   34°32′24″E
темп.,
°C
ветер,
м/с
пор.,
м/с
влажн.,
%
обл.,
%
осадки,
мм/ч
давл.,
гПа
погр.,
м
21 июня, пн
пн2100:00+19юв22770 0.0 101112
03:00+18сз0080100 0.0 101111
06:00+20ссв11825 0.0 101114
09:00+25всв22660 0.0 1011479
12:00+29в33570 0.0 10111084
15:00+31всв33537 0.0 10111492
18:00+30всв556084 0.0 10111180
21:00+23всв466777 0.0 101193
22 июня, вт
вт2200:00+22св4107951 0.2 1010197
03:00+20всв458193 0.9 101088
06:00+20в47820 0.0 1010150
09:00+25вюв57673 0.0 1011449
12:00+29вюв565758 0.0 10111082
15:00+30вюв673811 0.0 10111364
18:00+29юв464879 0.0 1011942
21:00+23ююв2267100 0.2 101218
23 июня, ср
ср2300:00+22всв126667 0.0 101211
03:00+21зсз337499 0.0 101147
06:00+21св1181100 0.0 101126
09:00+25юв22655 0.0 1012460
12:00+30ююв445152 0.0 10131281
15:00+31ююв4446100 0.0 10131493
18:00+29в3460100 0.0 1014274
21:00+25юз01696 0.0 101411
24 июня, чт
чт2400:00+23ссз477969 0.0 1013111
03:00+22с228290 0.0 101315
06:00+22ссз4883100 0.0 1013171
09:00+26св4566100 0.0 1013440
12:00+29всв3357100 0.0 10131018
15:00+31юв2352100 0.0 10121455
18:00+28вюв4667100 0.0 1013221
21:00+24юв488214 1.9 1014184
25 июня, пт
пт2500:00+21ю228998 3.4 101444
03:00+21св228944 3.4 101416
06:00+21ссв35886 0.0 1013101
09:00+27ссв23604 0.0 1013423
12:00+30ссз44475 0.0 10121011
15:00+31с224416 0.0 10111480
18:00+31св12434 0.0 10111301
21:00+26в22580 0.0 101111